CZ-6A DEB

Satellite information

Favourite Embed

Satellite Type and Status

DEBRISIN ORBIT

Key statistics

Satellite CZ-6A DEB at a glance.

Uptime

911

Days in orbit

Revolutions

≈ 14.1

Per day

Orbit

SSO

Sun Synchronous Orbit

Inclination

98.8

Latest

Satellite identification and parameters

Extended collection of information and parameters for CZ-6A DEB.

Object identification

Identified? True

Debris? True

Object name: CZ-6A DEB

International designator: 2022-151RC

Object number (NORAD): 54915

Object ID (CCSDS): 54915

Country: PEOPLES REPUBLIC OF CHINA (PRC)

Current information (Y/N): Y

RCS size: SMALL

Orbital parameters

Period: 102.343 minutes

Inclination: 98.82 deg

SMA: 7247.676 km

Apoapsis: 915.609 km

Periapsis: 823.473 km

RAAN: 123.0795 deg

Eccentricy: 0.0063562

Argument of periapsis: 46.8159 deg

Mean anomaly: 313.8297 deg

Mean motion: 14.07034097 rev/day

Mean motion (dot): 0.00001118 rev/day2

B* drag term: 0.00068206 1/REarth

Two-line elements (TLE)

Creation date: May 9, 2025, 2:46 a.m.

Reference frame: TEME

Reference center: EARTH

Epoch: May 8, 2025, 9:42 a.m. UTC

TLE line 0: 0 CZ-6A DEB

TLE line 1: 1 54915U 22151RC 25128.40447077 .00001118 00000-0 68206-3 0 9992

TLE line 2: 2 54915 98.8200 123.0795 0063562 46.8159 313.8297 14.07034097127070

Live tracking on map

Real-time ground track for satellite CZ-6A DEB.

In-orbit conjunctions

A list of the most updated potential collisions computed for object CZ-6A DEB.

Target Orbit TCA Probability of collision Miss distance Type
THOR ABLESTAR DEB LEO 2025-04-17 15:20:40 0.0001123186 301.0 (m) DEBRIS
FENGYUN 1C DEB SSO 2025-04-04 05:11:45 0.0002874019 153.0 (m) DEBRIS
FENGYUN 1C DEB SSO 2025-03-01 05:19:39 0.0001022774 570.0 (m) DEBRIS
FENGYUN 1C DEB SSO 2024-09-28 10:13:42 0.0002144347 965.0 (m) DEBRIS
THORAD AGENA D DEB SSO 2024-08-18 16:18:33 0.0001254589 589.0 (m) DEBRIS

Associated space launch

Chinese satellite reported for atmospheric/ocean/environmental/spatial parameter research purposes, details TBD.

CZ-6A DEB was lifted into orbit during the mission ‘Long March 6A | Yunhai 3’, on board a Long March 6A space rocket.

The launch took place on Nov. 11, 2022, 10:52 p.m. from Launch Complex 9A.

For more information about the launch, click the button.

Launch to space Long March 6A | Yunhai 3
Long March 6A | Yunhai 3

Agency: N/A

Status: Launch Successful

Launch date: Nov. 11, 2022, 10:52 p.m. UTC

Rocket: Long March 6A

Launch pad: Launch Complex 9A

Location: Taiyuan Satellite Launch Center, People's Republic of China

...

Latest news about this satellite

There are no fresh news available about this satellite. Check back as we update our databases every day.


Newsletter sign-up

Weekly statistics, charts and insights to help you stay on top of the space industry.